Point Salines, Grenada

10:55 AM AST on September 27, 2016 (GMT -0400)
Point Salines International

Weather History for TGPY - October, 2013

Change the Weather History Date:

Friday, October 18, 2013

  Actual Average Record
Temperature  
Mean Temperature 82 °F -  
Max Temperature 89 °F 85 °F 89 °F (1997)
Min Temperature 74 °F 76 °F 74 °F (2013)
Cooling Degree Days 16    
Growing Degree Days 32 (Base 50)    
Moisture  
Dew Point 77 °F    
Average Humidity 84    
Maximum Humidity 94    
Minimum Humidity 66    
Precipitation  
Precipitation 0.01 in - - ()
Sea Level Pressure  
Sea Level Pressure 29.89 in    
Wind  
Wind Speed 4 mph ()    
Max Wind Speed 14 mph    
Max Gust Speed -    
Visibility 7.8 miles    
Events Rain    
Averages and records for this station are not official NWS values.
T = Trace of Precipitation, MM = Missing Value Source: Averaged Metar Reports

Daily Weather History Graph

Daily Weather History Graph

Search for Another Location

Airport or City:

Trip Planner

Search our weather history database for the weather conditions in past years. The results will help you decide how hot, cold, wet, or windy it might be!

Date:

Astronomy

Oct. 18, 2013 Rise Set
Actual Time 5:57 AM AST 5:47 PM AST
Civil Twilight 5:35 AM AST 6:08 PM AST
Nautical Twilight 5:10 AM AST 6:33 PM AST
Astronomical Twilight 4:46 AM AST 6:58 PM AST
Moon 5:37 PM AST (10/18) 5:28 AM AST (10/18)
Length of Visible Light 12h 32m
Length of Day
11h 49m
Full, 100% of the Moon is Illuminated
Oct 18
Full
Oct 18
Full
Oct 26
Last Quarter
Nov 3
New
Nov 10
First Quarter

Hourly Weather History & Observations

Time (AST) Temp. Heat Index Dew Point Humidity Pressure Visibility Wind Dir Wind Speed Gust Speed Precip Events Conditions
12:00 AM 78.8 °F - 77.0 °F 94% 29.89 in 6.2 mi Calm Calm - N/A   Mostly Cloudy
1:00 AM 78.8 °F - 75.2 °F 89% 29.89 in 6.2 mi Variable 2.3 mph - N/A   Mostly Cloudy
2:00 AM 77 °F - 74 °F 89% 29.87 in 11 mi Calm Calm - -   Widespread Dust
2:00 AM 77.0 °F - 75.2 °F 94% 29.86 in 6.2 mi Calm Calm - N/A   Mostly Cloudy
3:00 AM 77.0 °F - 73.4 °F 89% 29.86 in 6.2 mi Calm Calm - N/A   Mostly Cloudy
4:00 AM 77.0 °F - 73.4 °F 89% 29.86 in 6.2 mi Calm Calm - N/A   Mostly Cloudy
5:00 AM 77 °F - 74 °F 87% 29.88 in 12 mi East 5.8 mph - -   Widespread Dust
5:00 AM 77.0 °F - 73.4 °F 89% 29.86 in 6.2 mi East 5.8 mph - N/A   Mostly Cloudy
6:00 AM 77.0 °F - 73.4 °F 89% 29.89 in 6.2 mi Calm Calm - N/A   Scattered Clouds
7:00 AM 80.6 °F 87.1 °F 77.0 °F 89% 29.92 in 6.2 mi Calm Calm - N/A   Scattered Clouds
8:00 AM 85 °F - 77 °F 72% 29.94 in 14 mi East 11.5 mph - -   Partly Cloudy
8:00 AM 86.0 °F 96.9 °F 77.0 °F 74% 29.92 in 6.2 mi East 11.5 mph - N/A   Mostly Cloudy
9:00 AM 87.8 °F 99.7 °F 77.0 °F 70% 29.95 in 6.2 mi SE 13.8 mph - N/A   Scattered Clouds
10:00 AM 87.8 °F 102.5 °F 78.8 °F 75% 29.95 in 6.2 mi NNW 5.8 mph - N/A   Scattered Clouds
11:00 AM 87 °F - 77 °F 66% 29.96 in 14 mi WNW 4.6 mph - -   Widespread Dust
11:00 AM 86.0 °F 96.9 °F 77.0 °F 74% 29.95 in 6.2 mi WNW 5.8 mph - N/A   Mostly Cloudy
12:00 PM 86.0 °F 96.9 °F 77.0 °F 74% 29.92 in 6.2 mi West 9.2 mph - N/A   Mostly Cloudy
1:00 PM 86.0 °F 99.3 °F 78.8 °F 79% 29.89 in 6.2 mi NNW 5.8 mph - N/A   Scattered Clouds
2:00 PM 86 °F - 78 °F 70% 29.88 in 14 mi Calm Calm - -   Mostly Cloudy
2:00 PM 86.0 °F 96.9 °F 77.0 °F 74% 29.86 in 6.2 mi Calm Calm - N/A   Scattered Clouds
3:00 PM 87.8 °F 99.7 °F 77.0 °F 70% 29.83 in 6.2 mi West 9.2 mph - N/A   Mostly Cloudy
4:00 PM 86.0 °F 99.3 °F 78.8 °F 79% 29.86 in 6.2 mi ESE 13.8 mph - N/A   Mostly Cloudy
5:00 PM 84 °F - 77 °F 75% 29.87 in 14 mi East 11.5 mph - -   Partly Cloudy
5:00 PM 84.2 °F 94.1 °F 77.0 °F 79% 29.86 in 6.2 mi East 11.5 mph - N/A   Scattered Clouds
6:00 PM 82.4 °F 92.4 °F 78.8 °F 89% 29.86 in 6.2 mi ESE 9.2 mph - N/A   Scattered Clouds
7:00 PM 78.8 °F - 77.0 °F 94% 29.89 in 6.2 mi East 11.5 mph - N/A   Scattered Clouds
7:10 PM 78.8 °F - 77.0 °F 94% 29.89 in 6.2 mi East 11.5 mph - N/A Rain Light Rain Showers
8:00 PM 80 °F - 77 °F 89% 29.90 in 11 mi ENE 4.6 mph - -   Widespread Dust
8:00 PM 78.8 °F - 77.0 °F 94% 29.89 in 6.2 mi ENE 4.6 mph - N/A   Scattered Clouds
9:00 PM 80.6 °F 87.1 °F 77.0 °F 89% 29.89 in 6.2 mi ENE 12.7 mph - N/A   Scattered Clouds
10:00 PM 78.8 °F - 77.0 °F 94% 29.92 in 6.2 mi East 5.8 mph - N/A   Partly Cloudy
11:00 PM 79 °F - 77 °F 90% 29.93 in 12 mi East 4.6 mph - -   Widespread Dust
11:00 PM 78.8 °F - 77.0 °F 94% 29.92 in 6.2 mi East 4.6 mph - N/A   Mostly Cloudy